TimeCDT,TemperatureF,Dew PointF,Humidity,Sea Level PressureIn,VisibilityMPH,Wind Direction,Wind SpeedMPH,Gust SpeedMPH,PrecipitationIn,Events,Conditions,WindDirDegrees,DateUTC
12:11 AM,71.6,69.8,94,29.99,7.0,NW,10.4,-,N/A,Thunderstorm,Mostly Cloudy,310,2013-09-20 05:11:00
12:23 AM,71.6,68.0,88,30.00,10.0,WNW,12.7,17.3,N/A,Thunderstorm,Overcast,300,2013-09-20 05:23:00
12:26 AM,71.6,66.2,83,30.01,10.0,Variable,6.9,17.3,N/A,,Overcast,0,2013-09-20 05:26:00
12:29 AM,71.6,66.2,83,30.00,9.0,WNW,11.5,18.4,0.00,Rain,Light Rain,300,2013-09-20 05:29:00
12:40 AM,69.8,66.2,88,30.02,4.0,NNW,5.8,-,0.33,Rain,Heavy Rain,330,2013-09-20 05:40:00
12:42 AM,69.8,66.2,88,30.02,4.0,NNW,4.6,-,0.34,Rain-Thunderstorm,Rain,330,2013-09-20 05:42:00
12:49 AM,69.8,66.2,88,30.02,4.0,NW,11.5,-,0.45,Rain-Thunderstorm,Heavy Rain,310,2013-09-20 05:49:00
12:57 AM,68.0,66.2,94,30.02,3.0,West,6.9,-,0.71,Rain-Thunderstorm,Heavy Rain,280,2013-09-20 05:57:00
12:59 AM,68.0,66.0,93,29.98,3.0,West,9.2,-,0.78,Rain-Thunderstorm,Heavy Rain,280,2013-09-20 05:59:00
1:04 AM,68.0,66.2,94,30.02,3.0,WNW,10.4,-,0.12,Rain-Thunderstorm,Heavy Rain,290,2013-09-20 06:04:00
1:26 AM,66.2,64.4,94,30.01,7.0,Calm,Calm,-,0.34,Rain-Thunderstorm,Thunderstorms and Rain,0,2013-09-20 06:26:00
1:57 AM,66.2,64.4,94,30.02,2.5,Calm,Calm,-,0.54,Rain,Heavy Rain,0,2013-09-20 06:57:00
1:59 AM,66.9,64.9,93,29.98,2.5,ESE,3.5,-,0.55,Rain,Heavy Rain,120,2013-09-20 06:59:00
2:05 AM,66.2,64.4,94,30.03,4.0,SE,9.2,-,0.03,Rain,Heavy Rain,140,2013-09-20 07:05:00
2:57 AM,66.9,64.9,93,29.98,10.0,SSW,9.2,-,0.24,Rain,Rain,200,2013-09-20 07:57:00
3:57 AM,66.2,64.4,94,30.00,10.0,Calm,Calm,-,0.14,Rain,Light Rain,0,2013-09-20 08:57:00
3:59 AM,66.0,64.9,96,29.96,10.0,Calm,Calm,-,0.14,Rain,Light Rain,0,2013-09-20 08:59:00
4:12 AM,66.2,64.4,94,29.99,10.0,Calm,Calm,-,0.01,Rain,Light Rain,0,2013-09-20 09:12:00
4:16 AM,66.2,64.4,94,29.99,10.0,WSW,3.5,-,0.01,Rain,Light Rain,250,2013-09-20 09:16:00
4:38 AM,66.2,64.4,94,29.99,10.0,Calm,Calm,-,0.01,Rain,Light Rain,0,2013-09-20 09:38:00
4:41 AM,66.2,64.4,94,30.00,10.0,Calm,Calm,-,0.02,Rain,Light Rain,0,2013-09-20 09:41:00
4:53 AM,66.2,64.4,94,30.00,9.0,Calm,Calm,-,0.02,Rain,Light Rain,0,2013-09-20 09:53:00
4:57 AM,66.0,64.9,96,29.97,9.0,Calm,Calm,-,0.02,Rain,Light Rain,0,2013-09-20 09:57:00
5:51 AM,66.2,64.4,94,30.00,10.0,SSW,3.5,-,0.04,Rain,Rain,200,2013-09-20 10:51:00
5:57 AM,66.9,64.9,93,29.96,10.0,Calm,Calm,-,0.04,Rain,Rain,0,2013-09-20 10:57:00
6:17 AM,66.2,64.4,94,30.00,10.0,Calm,Calm,-,N/A,Rain,Rain,0,2013-09-20 11:17:00
6:26 AM,66.2,64.4,94,30.00,9.0,Calm,Calm,-,N/A,Rain,Light Rain,0,2013-09-20 11:26:00
6:57 AM,66.0,64.9,96,29.96,8.0,Calm,Calm,-,N/A,Rain,Light Rain,0,2013-09-20 11:57:00
7:05 AM,66.2,64.4,94,30.00,8.0,Calm,Calm,-,0.01,Rain,Light Rain,0,2013-09-20 12:05:00
7:57 AM,66.2,64.4,94,30.00,9.0,Calm,Calm,-,0.05,Rain,Light Rain,0,2013-09-20 12:57:00
7:59 AM,66.9,64.9,93,29.96,10.0,Calm,Calm,-,0.05,Rain,Light Rain,0,2013-09-20 12:59:00
8:10 AM,66.2,64.4,94,30.00,7.0,South,3.5,-,0.00,Rain,Light Rain,170,2013-09-20 13:10:00
8:31 AM,66.2,64.4,94,30.00,10.0,South,4.6,-,0.01,Rain,Light Rain,190,2013-09-20 13:31:00
8:52 AM,66.2,64.4,94,30.00,8.0,Calm,Calm,-,0.02,Rain,Light Rain,0,2013-09-20 13:52:00
8:57 AM,66.9,64.9,93,29.96,10.0,Calm,Calm,-,0.02,Rain,Light Rain,0,2013-09-20 13:57:00
9:13 AM,68.0,66.2,94,30.00,10.0,West,5.8,-,0.00,Rain,Light Rain,260,2013-09-20 14:13:00
9:57 AM,68.0,66.0,93,29.97,10.0,West,4.6,-,0.00,Rain,Light Rain,260,2013-09-20 14:57:00
10:57 AM,68.0,64.9,90,29.98,10.0,NNW,8.1,-,0.01,Rain,Light Rain,340,2013-09-20 15:57:00
11:05 AM,68.0,66.2,94,30.01,10.0,North,5.8,-,N/A,,Overcast,350,2013-09-20 16:05:00
11:21 AM,69.8,66.2,88,30.01,10.0,NNW,6.9,-,N/A,,Overcast,340,2013-09-20 16:21:00
11:25 AM,69.8,66.2,88,30.01,10.0,North,4.6,-,N/A,,Overcast,350,2013-09-20 16:25:00
11:35 AM,68.0,66.2,94,30.00,10.0,NNW,9.2,-,N/A,,Overcast,340,2013-09-20 16:35:00
11:57 AM,68.0,64.9,90,29.98,8.0,NNW,8.1,-,N/A,,Overcast,340,2013-09-20 16:57:00
12:57 PM,64.9,63.0,93,30.00,3.0,NNW,9.2,-,N/A,,Overcast,330,2013-09-20 17:57:00
1:34 PM,66.2,62.6,88,30.01,10.0,North,10.4,-,N/A,,Overcast,350,2013-09-20 18:34:00
1:57 PM,68.0,60.8,78,29.99,10.0,NNE,13.8,18.4,N/A,,Mostly Cloudy,30,2013-09-20 18:57:00
1:59 PM,68.0,61.0,78,29.97,10.0,NNE,12.7,18.4,N/A,,Mostly Cloudy,20,2013-09-20 18:59:00
2:54 PM,66.2,60.8,83,29.98,10.0,Variable,6.9,-,N/A,,Mostly Cloudy,0,2013-09-20 19:54:00
2:57 PM,68.0,60.8,78,29.98,10.0,North,9.2,-,N/A,,Mostly Cloudy,10,2013-09-20 19:57:00
2:59 PM,68.0,61.0,78,29.95,10.0,North,9.2,-,N/A,,Mostly Cloudy,350,2013-09-20 19:59:00
3:16 PM,68.0,59.0,73,29.98,10.0,North,10.4,-,N/A,,Mostly Cloudy,10,2013-09-20 20:16:00
3:20 PM,68.0,59.0,73,29.98,10.0,North,8.1,-,N/A,,Scattered Clouds,360,2013-09-20 20:20:00
3:57 PM,66.9,55.9,68,29.96,10.0,North,9.2,-,N/A,,Clear,10,2013-09-20 20:57:00
4:57 PM,68.0,54.0,61,29.95,10.0,NNE,11.5,-,N/A,,Clear,20,2013-09-20 21:57:00
5:57 PM,66.0,54.0,65,29.95,10.0,NNW,4.6,-,N/A,,Clear,340,2013-09-20 22:57:00
6:57 PM,64.0,55.0,73,29.94,10.0,NNW,4.6,-,N/A,,Clear,340,2013-09-20 23:57:00
7:57 PM,63.0,55.0,75,29.96,10.0,Calm,Calm,-,N/A,,Clear,0,2013-09-21 00:57:00
8:57 PM,61.0,55.9,83,29.97,10.0,Calm,Calm,-,N/A,,Clear,0,2013-09-21 01:57:00
9:57 PM,59.0,57.0,93,29.98,10.0,NNW,5.8,-,N/A,,Clear,330,2013-09-21 02:57:00
10:57 PM,59.0,54.0,83,29.99,10.0,North,5.8,-,N/A,,Clear,360,2013-09-21 03:57:00
11:57 PM,57.0,52.0,83,29.98,10.0,NNW,4.6,-,N/A,,Clear,340,2013-09-21 04:57:00